Location: Breil-Beno�t
(47.6151°N, 1.4506°W)
Time: 21:03:07
(UTC+00:00)

Daily predictions for brighter satellites

Satellite Brightness Start Highest point End
(mag) Time Altitude Azimuth Time Altitude Azimuth Time Altitude Azimuth
SJ 16-02 1.3 16:45:09 10° NNW 16:49:32 61° ENE 16:53:51 10° SSE
Okean 3 Rocket 3.6 16:48:36 10° N 16:53:08 69° E 16:57:36 10° SSE
NOAA 11 4.4 16:49:25 10° SSE 16:54:51 82° WSW 17:00:19 10° NNW
MOS 1 Rocket 4.4 16:52:23 10° N 16:57:25 51° WNW 17:02:09 10° SW
SeaSat 1 4.4 16:55:21 10° N 16:59:01 21° NW 17:02:41 10° W
USA 306 3.0 16:55:26 10° WSW 16:59:41 77° NNW 17:03:57 10° ENE
NOSS 3-1 (A) 4.3 16:53:06 10° NW 16:59:59 46° NE 17:08:03 10° ESE
CORIOLIS 4.4 16:55:13 10° SE 17:00:21 48° ENE 17:05:33 10° N
NOSS 2-1 (C) 2.8 16:57:09 10° SW 17:00:26 82° NW 17:03:46 10° NE
CZ-2D R/B 4.3 16:58:43 10° ESE 17:01:51 25° ENE 17:05:01 10° NNE
Spot 1 4.3 16:57:36 10° NNE 17:02:10 78° ESE 17:06:59 10° SSW
NOSS 3-1 (C) 4.1 16:56:06 10° NW 17:03:20 65° NE 17:11:53 10° SE
USA 234 3.6 16:57:51 10° SE 17:04:23 74° SW 17:10:56 10° NW
Aureole 3 4.4 17:00:03 10° S 17:05:30 76° E 17:12:20 10° NNE
Iridium 2 3.6 17:01:53 10° N 17:05:40 81° E 17:09:24 10° S
SL-08 R/B 3.4 17:00:53 10° NNE 17:05:41 81° WNW 17:10:21 10° SSW
Cosmos 1842 Rocket 4.0 17:02:45 10° SSE 17:06:56 42° E 17:11:10 10° NNE
Cosmos 1833 Rocket 4.0 17:04:14 10° SE 17:08:07 20° E 17:11:51 11° ENE
Cosmos 1777 Rocket 4.4 17:03:28 10° NNW 17:08:44 70° WSW 17:13:59 10° SSE
NOSS 2-1 (D) 3.1 17:06:31 10° SW 17:09:45 65° NW 17:13:04 10° NE
Meteor 2-2 Rocket 4.4 17:04:25 10° S 17:10:24 69° E 17:16:23 10° NNE
PSLV R/B 4.2 17:10:19 10° SE 17:13:42 36° ENE 17:17:08 10° N
CZ-4B R/B 3.8 17:09:33 10° SE 17:14:19 32° ENE 17:19:01 10° N
Meteor PRIRODA 4.1 17:11:05 10° S 17:14:42 66° WSW 17:18:20 10° NNW
Sich 1 4.3 17:12:37 10° NNE 17:15:40 19° ENE 17:18:43 10° ESE
USA 307 3.1 17:11:53 10° WSW 17:16:10 69° NNW 17:19:51 14° ENE
ERBS 2.1 17:13:44 10° SW 17:16:55 74° SE 17:19:27 15° ENE
Cosmos 1862 3.9 17:13:19 10° NNW 17:17:15 60° W 17:21:11 10° S
Cosmos 1939 Rocket 2.8 17:13:08 10° SSE 17:17:15 76° ENE 17:21:23 10° N
Cosmos 1766 Rocket 4.2 17:13:46 10° NNW 17:18:03 59° W 17:22:20 10° S
SMAP 3.0 17:13:25 10° SSE 17:18:03 73° ENE 17:22:43 10° N
ARGOS 4.0 17:14:06 10° ESE 17:18:38 28° ENE 17:23:10 10° N
Cosmos 1898 Rocket 4.1 17:14:22 10° N 17:19:10 34° ENE 17:23:53 10° ESE
Cosmos 1606 2.6 17:15:32 10° S 17:19:16 77° E 17:23:03 10° NNE
H-2A R/B 2.4 17:15:13 10° SE 17:20:06 42° ENE 17:24:53 10° N
COSMOS 2455 4.4 17:21:21 10° SE 17:24:24 14° ESE 17:25:53 13° E
ATLAS CENTAUR R/B 2.4 17:20:59 10° WSW 17:24:56 42° NW 17:29:14 10° NNE
FengYun 1-2 T 4.4 17:20:50 10° SSE 17:26:27 81° WSW 17:32:04 10° NNW
Cosmos 2221 2.4 17:22:16 10° S 17:26:30 77° E 17:30:49 10° NNE
Cosmos 44 3.1 17:22:40 10° NW 17:27:32 68° NE 17:32:03 10° SE
COSMO-SKYMED 1 3.6 17:29:13 13° NE 17:32:13 26° E 17:35:51 10° SSE
Cosmos 2026 Rocket 4.3 17:28:19 10° N 17:34:09 41° ENE 17:39:52 10° SE
deb Chang Zheng 4 4.0 17:32:49 10° SE 17:36:48 38° ENE 17:40:49 10° N
Meteor 2-19 Rocket 4.5 17:32:13 10° N 17:38:19 85° W 17:44:25 10° S
USA 308 3.3 17:34:16 10° W 17:38:28 54° NNW 17:41:12 20° NE
CZ-2C R/B 3.2 17:33:46 10° NNE 17:38:30 34° E 17:43:09 10° SSE
Cosmos 1500 4.2 17:37:06 10° NNE 17:44:46 - SE 17:40:06 23° ENE
Okean O Rocket 2.2 17:37:02 10° SE 17:41:04 36° ENE 17:45:09 10° N
Meteor 1-25 Rocket 4.2 17:37:51 10° N 17:43:21 59° ENE 17:48:51 10° SSE
ISS -3.0 17:40:20 10° WNW 17:43:34 40° N 17:44:55 27° NE
CZ-4C R/B 3.5 17:39:16 10° NNW 17:45:21 34° NNE 17:49:48 20° E
YAOGAN 1 4.0 17:50:23 20° NE 17:50:23 20° NE 17:52:28 10° NNE
MOS 1-B 4.3 17:47:12 10° SSE 17:52:58 82° ENE 17:58:48 10° NNW
Cosmos 2084 3.5 17:52:53 10° NW 17:57:07 58° NE 17:59:42 23° ESE
CZ-4 R/B 3.5 18:00:22 13° NNE 18:00:22 13° NNE 18:00:59 10° NNE
Cosmos 2322 Rocket 4.1 17:55:30 10° N 17:57:36 13° NNE 17:57:36 13° NNE
Cosmos 2369 4.1 17:53:00 10° NNW 17:58:27 43° NE 18:02:24 18° ESE
Cosmos 1743 Rocket 3.5 17:57:01 10° N 18:01:21 82° W 18:05:40 10° S
Cosmos 1782 3.2 17:58:16 10° SSE 18:02:00 39° E 18:02:36 37° ENE
GEOS 3 Rocket 3.6 17:56:53 10° SE 18:02:02 66° NE 18:07:11 10° NW
Cosmos 1697 Rocket 2.6 18:01:10 10° NNW 18:06:48 68° ENE 18:12:23 10° SE
Cosmos 1937 Rocket 3.5 18:01:55 10° NNW 18:07:11 58° ENE 18:12:26 10° SE
Cosmos 1763 Rocket 3.3 18:02:52 10° SSW 18:07:54 72° ESE 18:11:17 21° NNE
USA 305 3.7 18:03:55 10° W 18:07:56 41° NNW 18:09:22 30° NNE
Cosmos 1980 Rocket 2.6 18:03:20 10° NNW 18:08:41 40° NE 18:10:40 31° E
Cosmos 841 Rocket 4.0 18:05:02 10° SSE 18:09:40 34° ESE 18:10:09 34° E
Cosmos 1340 Rocket 3.8 18:08:26 10° NNW 18:12:22 49° W 18:16:18 10° S
SL-16 R/B 3.8 18:08:47 10° N 18:11:40 17° NNE 18:11:40 17° NNE
Cosmos 1656 4.2 18:07:11 10° NNW 18:12:37 59° WSW 18:18:06 10° S
Cosmos 1666 Rocket 4.5 18:08:41 10° N 18:11:32 31° NE 18:11:32 31° NE
USA 267 3.8 18:08:54 22° NE 18:12:58 49° NNW 18:19:12 10° W
Meteor 2-14 Rocket 4.3 18:07:35 10° N 18:13:44 73° E 18:19:47 10° SSE
Cosmos 2082 Rocket 2.9 18:13:37 10° SSE 18:18:33 33° ESE 18:18:33 33° ESE
USA 276 2.1 18:16:58 10° WNW 18:19:58 74° SW 18:19:58 74° SW
SKYMED 2 3.4 18:17:49 23° NNE 18:20:29 79° ESE 18:24:50 10° S
Lacrosse 5 rocket 2.8 18:17:59 10° NW 18:20:53 22° N 18:20:53 22° N
Cosmos 1602 3.8 18:18:28 10° NNW 18:22:19 75° W 18:26:09 10° S
Cosmos 990 Rocket 4.5 18:17:21 10° NNW 18:22:30 61° WSW 18:27:33 10° S
Cosmos 1092 Rocket 4.2 18:16:12 10° NNW 18:22:34 77° W 18:28:53 10° S
Cosmos 1809 Rocket 4.4 18:17:08 10° N 18:23:16 83° W 18:29:20 10° S
COSMOS 2406 3.2 18:18:20 10° S 18:23:57 59° ESE 18:26:02 37° NE
Cosmos 2278 4.1 18:19:09 10° NNW 18:24:31 39° NE 18:24:47 39° ENE
Cosmos 1933 3.5 18:20:30 10° SSW 18:24:33 74° W 18:27:10 21° N
USA 229 DEB 3.9 18:20:38 10° NW 18:27:59 84° SW 18:35:48 10° SE
USA 229 3.9 18:20:44 10° NW 18:28:05 85° SW 18:35:54 10° SE
Meteor 2-21 Rocket 4.3 18:23:52 10° N 18:30:01 72° E 18:36:04 10° SSE
Feng Yun 1-1 Rocket 4.3 18:25:06 10° SSE 18:30:59 70° ENE 18:36:52 10° N
Cosmos 372 Rocket 3.9 18:28:56 10° NNW 18:34:08 62° ENE 18:35:14 50° ESE
ATLAS 2AS CENTAUR R/B 4.4 18:30:14 10° WNW 18:36:21 25° NNW 18:39:54 18° NNE
Cosmos 858 Rocket 4.4 18:31:27 10° NNW 18:36:47 90° WSW 18:42:04 10° SSE
Cosmos 2142 Rocket 4.3 18:31:27 10° S 18:37:31 67° E 18:43:41 10° NNE
Meteor 1-26 Rocket 4.3 18:33:18 10° S 18:39:14 90° W 18:45:19 10° NNE
USA 306 3.9 18:36:02 10° WNW 18:39:59 36° N 18:40:01 36° N
Cosmos 1805 Rocket 4.5 18:38:23 10° NNW 18:42:35 48° W 18:46:44 10° SSW
Cosmos 1833 Rocket 2.8 18:45:50 10° SW 18:51:26 72° WNW 18:53:36 39° NNE
Sich 1 4.0 18:49:29 10° NNW 18:53:36 46° W 18:57:41 10° SSW
CZ-4B R/B 4.3 18:49:34 10° S 18:54:44 43° W 18:59:52 10° NNW
Cosmos 2279 Rocket 3.8 18:49:25 10° S 18:55:39 86° E 19:01:21 13° N
USA 307 4.2 18:52:36 10° WNW 18:55:53 33° NNW 18:55:53 33° NNW
Meteor 1-14 Rocket 4.2 18:51:33 10° NNW 18:57:21 85° W 19:03:14 10° S
ARGOS 4.0 18:53:23 10° S 18:58:38 50° W 19:03:55 10° NNW
H-2A R/B 3.9 18:55:06 10° SSW 18:59:38 29° W 19:04:07 10° NW
Cosmos 2266 Rocket 4.4 18:53:30 10° N 18:58:09 45° NNE 18:58:09 45° NNE
NOSS 2-2 (D) 4.2 18:56:41 10° NW 19:01:50 87° NE 19:02:49 66° SE
NOSS 2-2 (E) 4.4 18:57:59 10° NW 19:03:18 79° SW 19:05:40 43° SSE
Landsat 5 4.2 19:03:51 50° WNW 19:03:57 50° WNW 19:07:55 10° SW
ATLAS CENTAUR R/B 4.0 19:02:50 10° NW 19:05:02 13° NNW 19:05:34 13° NNW
COSMO-SKYMED 1 4.1 19:06:26 23° NNW 19:08:26 35° WNW 19:12:22 10° SW
COSMOS 2455 2.7 19:03:21 10° SSW 19:09:04 77° SSE 19:09:04 77° SSE
Cosmos 1655 Rocket 4.1 19:04:34 10° N 19:09:57 61° NNE 19:09:57 61° NNE
Cosmos 540 Rocket 4.0 19:11:29 10° SW 19:16:28 53° WNW 19:16:55 51° NW
ATLAS CENTAUR R/B 2.9 19:09:31 10° WSW 19:16:49 56° WNW 19:16:49 56° WNW
Okean O Rocket 3.7 19:13:42 10° SSW 19:17:29 27° W 19:21:17 10° NW
CZ-2C R/B 3.9 19:14:22 12° N 19:18:49 37° WNW 19:23:31 10° SW
ISS -0.6 19:17:21 10° WNW 19:17:54 14° WNW 19:17:54 14° WNW
Cosmos 2360 Rocket 4.4 19:22:11 10° N 19:23:05 14° N 19:23:05 14° N
CZ-4C R/B 2.8 19:27:35 10° NW 19:34:47 90° ENE 19:35:02 85° SE
Cosmos 2322 Rocket 4.2 19:38:01 10° NNW 19:39:25 18° NNW 19:39:25 18° NNW
Cosmos 1980 Rocket 3.4 19:47:29 10° NW 19:52:30 37° WSW 19:52:30 37° WSW
USA 267 4.2 19:56:15 37° NNW 19:56:15 37° NNW 20:01:12 10° WNW
SL-16 R/B 4.2 19:51:58 10° NNW 19:53:32 19° NNW 19:53:32 19° NNW
Cosmos 2082 Rocket 3.7 19:57:05 10° SW 20:00:28 32° WSW 20:00:28 32° WSW
